Location: Agenbach
(47.2667°N, 11.4500°E)
Time: 07:28:21
(UTC+00:00)

NOSS 2-1 (C) - Pass Details

Date: 07 June 2020
Orbit: 448 x 1755 km, 63.3° (Epoch: 29 June)

Event Time Altitude Azimuth Distance (km) Brightness Sun altitude
Exits shadow 01:12:31 32° 204° (SSW) 795 3.6 -15.0°
Maximum altitude 01:13:55 71° 128° (SE) 483 2.9 -14.8°
Drops below altitude 10° 01:17:29 10° 44° (NE) 1,676 7.1 -14.6°
Sets 01:19:46 0° 42° (NE) 2,661 8.5 -14.4°
